Home > Weather > Gloucester > Past weeks

Flag for USA Past Weather in Gloucester, Massachusetts, USA — Yesterday and Last 2 Weeks

Now
67 °F

Light rain. Fog.


Feels Like: 67 °F
Forecast: 66 / 72 °F
Wind: 7 mph from Southeast

Location: Beverly Municipal Airport

Current Time: Jun 28, 2016 at 9:16:27 AM

Latest Report: Jun 28, 2016 at 8:03 AM


Visibility: 6 mi

Pressure: 30.00 "Hg

Humidity: 97%

Dew Point: 66 °F

Location of GloucesterLocation

Past Weather in Gloucester — Graph

°F

Gloucester Temperature Yesterday

Maximum temperature yesterday: 85 °F (at 1:53 PM)
Minimum temperature yesterday: 63 °F (at 3:53 AM)
Average temperature yesterday: 74 °F

High & Low Weather Summary for the Past Weeks

 TemperatureHumidityPressure
High85 °F (Jun 27, 1:53 PM)100% (Jun 19, 3:57 AM)30.32 "Hg (Jun 19, 3:57 AM)
Low51 °F (Jun 23, 1:53 AM)28% (Jun 21, 5:53 PM)29.62 "Hg (Jun 13, 5:53 PM)
Average68 °F63%29.95 "Hg
* Reported Jun 13 8:53 AM — Jun 28 8:03 AM, Gloucester, Weather by CustomWeather, © 2016

Note: Actual official high and low records may vary slightly from our data, if they occured in-between our weather recording intervals... More about our weather records

Advertising

Gloucester Weather History for the Previous 24 Hours

Scroll right to see more
 ConditionsComfort  
Time TempWeatherWind HumidityBarometerVisibility
8:03 AM
Tue, Jun 28
67 °FLight rain. Fog.7 mph97%30.00 "Hg6 mi
7:53 AM65 °FRain. Fog.6 mph100%29.98 "Hg2 mi
6:53 AM68 °FLight rain. Mostly cloudy.6 mph93%29.97 "Hg8 mi
5:53 AM69 °FMostly cloudy.7 mph87%29.96 "Hg10 mi
4:53 AM70 °FOvercast.6 mph81%29.96 "Hg10 mi
3:53 AM70 °FPassing clouds.8 mph81%29.96 "Hg10 mi
2:53 AM69 °FPassing clouds.8 mph84%29.97 "Hg10 mi
1:53 AM71 °FOvercast.8 mph78%29.98 "Hg10 mi
12:53 AM72 °FPassing clouds.9 mph73%29.98 "Hg10 mi
11:53 PM
Mon, Jun 27
72 °FClear.12 mph73%29.99 "Hg10 mi
10:53 PM72 °FClear.13 mph71%29.99 "Hg10 mi
9:53 PM73 °FClear.12 mph66%29.99 "Hg10 mi
8:53 PM74 °FScattered clouds.15 mph69%29.98 "Hg10 mi
7:53 PM75 °FSunny.15 mph69%29.97 "Hg10 mi
6:53 PM75 °FSunny.13 mph69%29.97 "Hg10 mi
5:53 PM77 °FSunny.15 mph62%29.96 "Hg10 mi
4:53 PM80 °FSunny.17 mph45%29.96 "Hg10 mi
3:53 PM83 °FSunny.15 mph32%29.96 "Hg10 mi
2:53 PM85 °FSunny.18 mph37%29.96 "Hg10 mi
1:53 PM85 °FScattered clouds.16 mph39%29.97 "Hg10 mi
12:53 PM84 °FScattered clouds.13 mph40%30.00 "Hg10 mi
11:53 AM83 °FScattered clouds.13 mph40%30.02 "Hg10 mi
10:53 AM82 °FScattered clouds.13 mph44%30.03 "Hg10 mi
9:53 AM79 °FScattered clouds.10 mph50%30.05 "Hg10 mi
Weather by CustomWeather, © 2016

See weather overviewHow to use our weather pages